Preview of NWS' New Version of Forecast
This preview is not operational and should not be used for support decisions.

Regional Weather Roundup (RWR)

Issued by National Weather Service (NWS)

                            
000
ASUS44 KJAN 221310
RWRMS 

MISSISSIPPI HOURLY WEATHER ROUNDUP
NATIONAL WEATHER SERVICE JACKSON MS
800 AM CDT WED MAY 22 2019

NOTE: "FAIR: INDICATES FEW OR NO CLOUDS BELOW 12,000 FEET WITH NO
SIGNIFICANT WEATHER AND/OR OBSTRUCTIONS TO VISIBILITY.

MSZ001>002-007>008-010>013-018>021-025>028-034>036-221400-
NORTHWEST MISSISSIPPI
  
CITY           SKY/WX    TMP DP  RH WIND       PRES   REMARKS
BATESVILLE     CLOUDY    77  72  83 S8        29.94R                  
CLARKSDALE     PTSUNNY   79  79 100 S12G18    29.92R                  
CLEVELAND      CLOUDY    76  76  99 S13       29.92R                  
GREENWOOD      FAIR      77  71  82 S15       29.94R                  
GREENVILLE     PTSUNNY   78  72  81 S15       29.91R                  
OLIVE BRANCH   CLOUDY    73  73 100 S12       29.92R                  
OXFORD         CLOUDY    73  68  83 S9G16     29.96R                  
TUNICA           N/A     75  70  83 S15G23    29.92R                  
WINONA         FAIR      75  71  87 S13G18    29.96R                  
$$

MSZ003>006-009-014>017-022>024-029>033-037>039-221400-
NORTHEAST MISSISSIPPI
  
CITY           SKY/WX    TMP DP  RH WIND       PRES   REMARKS
ABERDEEN       CLOUDY    73  73 100 S10       30.00R                  
COLUMBUS AFB   CLOUDY    74  70  87 S9        29.99R                  
CORINTH        FAIR      77  70  78 S8G16     29.95R                  
GOLDN TRIANGLE CLOUDY    74  71  91 S7        30.00R                  
STARKVILLE     PTSUNNY   73  72  94 S7        30.00R                  
TUPELO         PTSUNNY   75  69  81 S14       29.97R                  
$$

MSZ040-058-221400-
CENTRAL MISSISSIPPI
  
CITY           SKY/WX    TMP DP  RH WIND       PRES   REMARKS
JACKSON INTL   CLOUDY    77  71  82 S9        29.97R                  
JACKSON HAWKNS CLOUDY    77  73  87 S9        29.97R                  
MADISON        CLOUDY    73  73 100 S6        29.97R                  
MERIDIAN KEY   FAIR      77  71  82 S8        30.00R                  
MERIDIAN NAS   CLOUDY    74  72  93 SE5       30.00R                  
RAYMOND        CLOUDY    77  75  94 S8        29.96R                  
VICKSBURG VKS  MOSUNNY   79  75  89 S8        29.95R                  
$$

MSZ059>079-221400-
SOUTH MISSISSIPPI
  
CITY           SKY/WX    TMP DP  RH WIND       PRES   REMARKS
BROOKHAVEN     CLOUDY    75  73  94 SE10G16   29.99R                  
HATTIESBURG    FAIR      73  71  93 SE5       30.00R                  
LAUREL         MOSUNNY   75  72  90 S7        29.99R                  
MCCOMB         CLOUDY    76  73  91 SE10      29.97R                  
NATCHEZ        CLOUDY    77  73  87 S8        29.94R                  
PINE BELT      PTSUNNY   74  73  97 SE7       30.01R                  
$$

MSZ080>082-221400-
COASTAL MISSISSIPPI
  
CITY           SKY/WX    TMP DP  RH WIND       PRES   REMARKS
BAY ST LOUIS   PTSUNNY   81  75  83 SE15      29.97S                  
BILOXI         FAIR      82  74  75 S9        29.99R                  
PASCAGOULA     FAIR      80  72  76 S3        30.00R                  
GULFPORT       FAIR      82  73  74 SE14      29.98R                  
$$

LAZ007>009-015>016-023>026-221400-
NORTHEAST LOUISIANA
  
CITY           SKY/WX    TMP DP  RH WIND       PRES   REMARKS
BASTROP        CLOUDY    77  76  98 S6        29.91R                  
TALLULAH/VBURG FAIR      77  73  87 S7        29.94R                  
VIDALIA        PTSUNNY   77  74  89 SE7       29.92R                  
$$